{"data":{"norad_id":57137,"epoch":"2026-09-20T23:23:12.031584Z","epoch_age_seconds":79928,"freshness":"FRESH","line1":"1 57137U 23090AN  26263.97444481 -.00000019  00000+0  88106-5 0  9995","line2":"2 57137  43.0017 240.1388 0000500  14.2187 345.8678 15.27575789180224","mean_motion":15.27575789,"eccentricity":5.0e-5,"inclination_deg":43.0017,"raan_deg":240.1388,"arg_perigee_deg":14.2187,"mean_anomaly_deg":345.8678,"bstar":8.8106e-6,"rev_number":18022,"period_min":94.267008574591,"perigee_km":482.71864538225,"apogee_km":483.40476525279,"semimajor_km":6861.1987053175,"source":"CELESTRAK","updated_at":"2026-09-21T09:00:33.565532Z"}}